Weather in Zarya

Russia / Kirov Oblast     60°00′28″N   48°01′34″E
temp.,
°C
wind,
m/s
gust,
m/s
humid.,
%
clouds,
%
prec.,
mm/h
press.,
hPa
HPBL,
m
15 may, sat
sat1500:00+13nw228992 0.0 101644
03:00+12w118879 0.0 101710
06:00+16s237581 0.0 1016120
09:00+16sw137897 0.1 1016214
12:00+22s3651100 0.1 10151107
15:00+25ssw365196 0.1 10131712
18:00+20ene1280100 2.8 101059
21:00+14e2395100 22.7 101392
16 may, sun
sun1600:00+14sse3895100 1.6 1012232
03:00+14s412979 1.6 1012348
06:00+16ssw412920 0.0 1012449
09:00+20ssw510700 0.0 1011955
12:00+23sw610483 0.0 10111932
15:00+24sw510480 0.0 10112296
18:00+21sw510580 0.0 10101212
21:00+15sw311820 0.0 1011292
17 may, mon
mon1700:00+15sw413805 0.0 1011515
03:00+13sw411890 0.0 1012381
06:00+15sw4108422 0.0 1013534
09:00+16w487856 0.0 1015899
12:00+21wsw48503 0.0 10151816
15:00+23w58434 0.0 10152258
18:00+21w37553 0.0 1015444
21:00+16w2372100 0.0 101636
18 may, tue
tue1800:00+13nne1183100 0.0 101811
03:00+11ene228830 0.0 101932
06:00+15e23735 0.0 1019190
09:00+20ese2256100 0.0 1019637
12:00+24ese2246100 0.0 10181325
15:00+25ese234568 0.0 10181645
18:00+23ene365945 0.0 1017231
21:00+17ese3107336 0.0 1017195
19 may, wed
wed1900:00+15ese3137312 0.0 1017278
03:00+15se3127447 0.0 1017258
06:00+18se410715 0.0 1016271
09:00+24sse484710 0.0 1016670
12:00+28s573150 0.0 10151697
15:00+28sse463396 0.0 10143082
18:00+25se4104449 0.0 1013430
21:00+19se413605 0.0 1011249